Aérodrome :
LOGIN :

S'inscrire | Disclaimer

   EN    FR    IT 

 










Légende :    VFR   VFR Marginal   IFR   IFR Intensif   IFR Très Intensif
Visi : 
Plafond : 
>= 8 km
>= 3000ft
5 à 8 km
1000 à 3000 ft
1500m à 5 km
500 à 1000 ft
800 à 1500m
200 à 500 ft
< 800m
< 200 ft
Symboles :   Orages  Brouillard  Fortes neiges  Fortes précipitations  Vent > 20 kt
SIGMETs :   Divers  Orages  Givrage  Turbulence  Onde Orograph.  Cendres Volcan.







- Altitude de l'aérodrome : 915 ft
- Code IATA : LUG


LSZA - Lugano

DERNIER METAR :
  • 151420Z 02005KT 9000 SCT050TCU BKN090 19/12 Q1019 NOSIG

METARs EXPIRÉS :
  • 151350Z 02004KT 8000 SCT050TCU BKN090 19/13 Q1019 NOSIG
  • 151320Z 03004KT 8000 VCSH SCT050TCU BKN090 19/12 Q1019 NOSIG
  • 151250Z 36004KT 320V020 8000 VCSH SCT050TCU BKN090 19/12 Q1019 NOSIG
  • 151220Z 02004KT 340V050 8000 VCSH SCT050TCU BKN090 19/13 Q1019 NOSIG
  • 151150Z VRB02KT 9000 SCT050TCU BKN090 19/12 Q1019 NOSIG

TAF TAF LSZA
Valide du 15 à 15h jusqu'au 16 à 00h UTC


151425Z 1515/1524 VRB03KT 8000 SCT050 BKN090
PROB40
TEMPO 1515/1521 SHRA SCT050TCU
ATIS : +41 22 417 40 88
Pas de NOTAMs connus pour ce terrain.



MET'MAP, la Météo Aéronautique d'un coup d'oeil ! - Copyright ORBIFLY Décembre 2007 - Disclaimer

ORBIFLY MET'MAP TEAM :

Programmation & Développement : Alexandra Zaïnal
Conception & Développement : Baudouin d'Aumeries
Co-Programmation & Développement : Marc-Olivier Méhu
Soutien technique & logistique : Manuel Goepfert

Contact : metmap@orbifly.com




SOURCES & CREDITS :

   NOAA